This is the latest recevied weather packets stored in our database for station/object NR0A-4. If no packets are shown the sender has not sent any weather packets the latest 10 day(s).
| Time | Temp. | Humidity | Pressure | Rain* | Wind** | Luminosity | Snow |
|---|---|---|---|---|---|---|---|
| 1777676405 | 13.89° C | 32% | 1018.6 hPa | 0 mm | - | 392 W/m² | - |
| 1777676104 | 13.89° C | 34% | 1018.5 hPa | 0 mm | - | 403 W/m² | - |
| 1777675805 | 13.89° C | 32% | 1018.5 hPa | 0 mm | - | 422 W/m² | - |
| 1777675504 | 13.89° C | 34% | 1018.5 hPa | 0 mm | - | 429 W/m² | - |
| 1777675205 | 13.89° C | 35% | 1018.5 hPa | 0 mm | - | 445 W/m² | - |
| 1777674904 | 13.89° C | 35% | 1018.4 hPa | 0 mm | - | 462 W/m² | - |
| 1777674605 | 13.89° C | 33% | 1018.4 hPa | 0 mm | - | 485 W/m² | - |
| 1777674305 | 13.89° C | 33% | 1018.5 hPa | 0 mm | - | 497 W/m² | - |
| 1777674005 | 13.89° C | 33% | 1018.5 hPa | 0 mm | - | 512 W/m² | - |
| 1777673704 | 13.89° C | 33% | 1018.5 hPa | 0 mm | - | 529 W/m² | - |
| 1777673405 | 13.89° C | 32% | 1018.5 hPa | 0 mm | - | 109 W/m² | - |
| 1777673104 | 13.89° C | 33% | 1018.5 hPa | 0 mm | - | 573 W/m² | - |
| 1777672804 | 13.89° C | 36% | 1018.5 hPa | 0 mm | - | 573 W/m² | - |
| 1777672504 | 13.33° C | 33% | 1018.5 hPa | 0 mm | - | 603 W/m² | - |
| 1777672204 | 13.33° C | 33% | 1018.6 hPa | 0 mm | - | 603 W/m² | - |
| 1777671904 | 13.89° C | 33% | 1018.6 hPa | 0 mm | - | 107 W/m² | - |
| 1777671604 | 13.89° C | 32% | 1018.6 hPa | 0 mm | - | 643 W/m² | - |
| 1777671305 | 14.44° C | 32% | 1018.7 hPa | 0 mm | - | 156 W/m² | - |
| 1777671005 | 14.44° C | 36% | 1018.7 hPa | 0 mm | - | 654 W/m² | - |
| 1777670705 | 13.89° C | 36% | 1018.8 hPa | 0 mm | - | 666 W/m² | - |
| 1777670404 | 13.89° C | 33% | 1018.8 hPa | 0 mm | - | 673 W/m² | - |
| 1777670105 | 13.89° C | 32% | 1018.8 hPa | 0 mm | - | 686 W/m² | - |
| 1777669805 | 13.89° C | 34% | 1018.9 hPa | 0 mm | - | 691 W/m² | - |
| 1777669505 | 13.89° C | 34% | 1018.9 hPa | 0 mm | - | 712 W/m² | - |
| 1777669205 | 13.89° C | 33% | 1018.9 hPa | 0 mm | - | 752 W/m² | - |
* Rain latest hour (hover to see other rain measurements)
** Current wind speed in m/s (hover to see current wind gust speed)